When you browse on this site, cookies collect data to enhance your experience and personalize the content and advertising you see.
Visit our Privacy Policy to learn more. By continuing to use the site, you agree to this use of cookies and data.

Hourly Weather Konakry

Today, 3 August, Monday

Time Temperature Precipitation Wind Pressure Humidity
00:00 +25°C° 0.5 mm 5 mps 758 mmHg 94%
01:00 +25°C° 0.5 mm 4 mps 758 mmHg 94%
02:00 +25°C° 0.5 mm 4 mps 758 mmHg 94%
03:00 +25°C° 0.2 mm 3 mps 758 mmHg 93%
04:00 +25°C° 0.2 mm 3 mps 758 mmHg 93%
05:00 +25°C° 0 mm 4 mps 758 mmHg 93%
06:00 +26°C° 0.3 mm 4 mps 758 mmHg 92%
07:00 +26°C° 0.3 mm 4 mps 758 mmHg 90%
08:00 +27°C° 0.3 mm 4 mps 759 mmHg 89%
09:00 +27°C° 0.4 mm 5 mps 759 mmHg 86%
10:00 +28°C° 0.4 mm 5 mps 759 mmHg 84%
11:00 +29°C° 0 mm 5 mps 759 mmHg 82%
12:00 +29°C° 0.3 mm 6 mps 758 mmHg 82%
13:00 +29°C° 0.3 mm 7 mps 757 mmHg 81%
14:00 +29°C° 0.3 mm 7 mps 757 mmHg 80%
15:00 +29°C° 0.1 mm 7 mps 757 mmHg 80%
16:00 +28°C° 0.1 mm 7 mps 757 mmHg 80%
17:00 +28°C° 0.1 mm 6 mps 757 mmHg 80%
18:00 +28°C° 0.1 mm 6 mps 757 mmHg 82%
19:00 +27°C° 0.1 mm 6 mps 758 mmHg 83%
20:00 +27°C° 0.1 mm 5 mps 758 mmHg 85%
21:00 +27°C° 0.2 mm 6 mps 758 mmHg 86%
22:00 +27°C° 0.2 mm 6 mps 759 mmHg 86%
23:00 +27°C° 0.2 mm 6 mps 759 mmHg 87%

Tomorrow, 4 August, Tuesday

Time Temperature Precipitation Wind Pressure Humidity
00:00 +27°C° 0.3 mm 6 mps 759 mmHg 87%
01:00 +26°C° 0.3 mm 6 mps 758 mmHg 87%
02:00 +26°C° 0.3 mm 6 mps 758 mmHg 87%
03:00 +26°C° 0.3 mm 6 mps 758 mmHg 87%
04:00 +26°C° 0.3 mm 6 mps 758 mmHg 87%
05:00 +26°C° 0.3 mm 6 mps 758 mmHg 87%
06:00 +27°C° 0.1 mm 6 mps 758 mmHg 84%
07:00 +27°C° 0.1 mm 6 mps 758 mmHg 82%
08:00 +28°C° 0.1 mm 6 mps 759 mmHg 80%
09:00 +28°C° 0.1 mm 6 mps 759 mmHg 79%
10:00 +28°C° 0.1 mm 6 mps 759 mmHg 78%
11:00 +28°C° 0.1 mm 5 mps 759 mmHg 78%
12:00 +28°C° 0.2 mm 5 mps 759 mmHg 80%
13:00 +27°C° 0.2 mm 5 mps 758 mmHg 82%
14:00 +26°C° 0.2 mm 5 mps 758 mmHg 84%
15:00 +26°C° 0.5 mm 5 mps 758 mmHg 86%
16:00 +26°C° 0.5 mm 4 mps 758 mmHg 88%
17:00 +25°C° 0.5 mm 4 mps 758 mmHg 90%
18:00 +25°C° 0.3 mm 3 mps 758 mmHg 89%
19:00 +25°C° 0.3 mm 3 mps 758 mmHg 88%
20:00 +25°C° 0.3 mm 2 mps 759 mmHg 87%
21:00 +25°C° 0 mm 2 mps 759 mmHg 86%
22:00 +25°C° 0 mm 2 mps 759 mmHg 85%
23:00 +25°C° 0 mm 2 mps 759 mmHg 84%

Day after tomorrow, 5 August, Wednesday

Time Temperature Precipitation Wind Pressure Humidity
00:00 +25°C° 0.1 mm 2 mps 758 mmHg 85%
01:00 +25°C° 0.1 mm 2 mps 758 mmHg 86%
02:00 +25°C° 0.1 mm 3 mps 757 mmHg 87%
03:00 +25°C° 0.4 mm 3 mps 757 mmHg 88%
04:00 +25°C° 0.4 mm 3 mps 757 mmHg 89%
05:00 +25°C° 0.4 mm 3 mps 757 mmHg 90%
06:00 +25°C° 0.7 mm 3 mps 758 mmHg 90%
07:00 +25°C° 0.7 mm 3 mps 758 mmHg 90%
08:00 +25°C° 0.7 mm 3 mps 758 mmHg 90%
09:00 +25°C° 0.9 mm 3 mps 759 mmHg 90%
10:00 +25°C° 0.9 mm 3 mps 759 mmHg 89%
11:00 +25°C° 0.9 mm 3 mps 759 mmHg 89%
12:00 +26°C° 0.3 mm 4 mps 758 mmHg 88%
13:00 +26°C° 0.3 mm 4 mps 758 mmHg 86%
14:00 +27°C° 0.3 mm 4 mps 757 mmHg 84%
15:00 +27°C° 0.1 mm 4 mps 757 mmHg 84%
16:00 +27°C° 0.1 mm 5 mps 757 mmHg 84%
17:00 +27°C° 0.1 mm 5 mps 757 mmHg 83%
18:00 +26°C° 0.1 mm 5 mps 757 mmHg 84%
19:00 +26°C° 0.1 mm 5 mps 758 mmHg 85%
20:00 +26°C° 0.1 mm 5 mps 758 mmHg 86%
21:00 +26°C° 0.1 mm 5 mps 758 mmHg 86%
22:00 +26°C° 0.1 mm 5 mps 759 mmHg 86%
23:00 +26°C° 0.1 mm 5 mps 759 mmHg 86%

6 August, Thursday

Time Temperature Precipitation Wind Pressure Humidity
00:00 +26°C° 0.1 mm 5 mps 758 mmHg 86%
01:00 +26°C° 0.1 mm 5 mps 758 mmHg 86%
02:00 +26°C° 0.1 mm 5 mps 757 mmHg 87%
03:00 +25°C° 0.1 mm 5 mps 757 mmHg 87%
04:00 +25°C° 0.1 mm 5 mps 757 mmHg 87%
05:00 +25°C° 0.1 mm 5 mps 757 mmHg 87%
06:00 +25°C° 0.1 mm 4 mps 758 mmHg 87%
07:00 +25°C° 0.1 mm 4 mps 758 mmHg 87%
08:00 +25°C° 0.1 mm 4 mps 758 mmHg 87%
09:00 +26°C° 0 mm 4 mps 759 mmHg 86%
10:00 +26°C° 0 mm 4 mps 759 mmHg 84%
11:00 +26°C° 0 mm 4 mps 759 mmHg 83%
12:00 +27°C° 0 mm 4 mps 758 mmHg 79%
13:00 +28°C° 0 mm 5 mps 758 mmHg 75%
14:00 +29°C° 0 mm 6 mps 757 mmHg 70%
15:00 +28°C° 0 mm 6 mps 757 mmHg 72%
16:00 +28°C° 0 mm 6 mps 757 mmHg 74%
17:00 +28°C° 0 mm 6 mps 756 mmHg 75%
18:00 +27°C° 0 mm 5 mps 757 mmHg 77%
19:00 +27°C° 0 mm 5 mps 758 mmHg 79%
20:00 +26°C° 0 mm 4 mps 759 mmHg 81%
21:00 +26°C° 0 mm 4 mps 759 mmHg 82%
22:00 +26°C° 0 mm 4 mps 759 mmHg 82%
23:00 +26°C° 0 mm 4 mps 759 mmHg 82%

7 August, Friday

Time Temperature Precipitation Wind Pressure Humidity
00:00 +26°C° 0.1 mm 4 mps 759 mmHg 83%
01:00 +26°C° 0.1 mm 4 mps 758 mmHg 83%
02:00 +26°C° 0.1 mm 4 mps 758 mmHg 84%
03:00 +26°C° 0.1 mm 4 mps 758 mmHg 84%
04:00 +26°C° 0.1 mm 4 mps 758 mmHg 84%
05:00 +26°C° 0.1 mm 4 mps 758 mmHg 84%
06:00 +26°C° 0.7 mm 4 mps 759 mmHg 86%
07:00 +25°C° 0.7 mm 3 mps 759 mmHg 87%
08:00 +25°C° 0.7 mm 3 mps 760 mmHg 89%
09:00 +25°C° 0.7 mm 3 mps 760 mmHg 89%
10:00 +25°C° 0.7 mm 3 mps 759 mmHg 89%
11:00 +25°C° 0.7 mm 3 mps 759 mmHg 89%
12:00 +25°C° 0.2 mm 3 mps 759 mmHg 87%
13:00 +26°C° 0.2 mm 3 mps 758 mmHg 85%
14:00 +26°C° 0.2 mm 2 mps 758 mmHg 83%
15:00 +26°C° 0 mm 2 mps 758 mmHg 82%
16:00 +26°C° 0 mm 2 mps 757 mmHg 82%
17:00 +26°C° 0 mm 2 mps 757 mmHg 81%
18:00 +26°C° 0 mm 2 mps 758 mmHg 81%
19:00 +26°C° 0 mm 2 mps 759 mmHg 82%
20:00 +26°C° 0 mm 3 mps 759 mmHg 82%
21:00 +26°C° 0 mm 3 mps 759 mmHg 83%
22:00 +26°C° 0 mm 3 mps 759 mmHg 83%
23:00 +26°C° 0 mm 3 mps 759 mmHg 84%

8 August, Saturday

Time Temperature Precipitation Wind Pressure Humidity
00:00 +26°C° 0.1 mm 3 mps 759 mmHg 85%
01:00 +26°C° 0.1 mm 3 mps 758 mmHg 86%
02:00 +25°C° 0.1 mm 3 mps 758 mmHg 87%
03:00 +25°C° 0.2 mm 3 mps 758 mmHg 87%
04:00 +25°C° 0.2 mm 3 mps 758 mmHg 88%
05:00 +25°C° 0.2 mm 3 mps 758 mmHg 88%
06:00 +25°C° 0.3 mm 3 mps 758 mmHg 88%
07:00 +26°C° 0.3 mm 3 mps 759 mmHg 88%
08:00 +26°C° 0.3 mm 3 mps 759 mmHg 87%
09:00 +26°C° 0.1 mm 3 mps 759 mmHg 85%
10:00 +27°C° 0.1 mm 3 mps 759 mmHg 83%
11:00 +27°C° 0.1 mm 3 mps 759 mmHg 81%
12:00 +27°C° 0.1 mm 4 mps 759 mmHg 82%
13:00 +27°C° 0.1 mm 4 mps 758 mmHg 83%
14:00 +27°C° 0.1 mm 4 mps 758 mmHg 84%
15:00 +27°C° 0.1 mm 4 mps 758 mmHg 85%
16:00 +26°C° 0.1 mm 4 mps 757 mmHg 87%
17:00 +26°C° 0.1 mm 5 mps 757 mmHg 89%
18:00 +26°C° 0.2 mm 5 mps 758 mmHg 89%
19:00 +26°C° 0.2 mm 5 mps 758 mmHg 90%
20:00 +26°C° 0.2 mm 5 mps 759 mmHg 90%
21:00 +26°C° 0.4 mm 4 mps 759 mmHg 90%
22:00 +26°C° 0.4 mm 4 mps 759 mmHg 90%
23:00 +26°C° 0.4 mm 4 mps 759 mmHg 90%
Show more